This is the latest recevied weather packets stored in our database for station/object N3MFL. If no packets are shown the sender has not sent any weather packets the latest 10 day(s).
| Time | Temp. | Humidity | Pressure | Rain* | Wind** | Luminosity | Snow |
|---|---|---|---|---|---|---|---|
| 1778071075 | 15.56° C | 80% | 1012.2 hPa | 0 mm | - | 249 W/m² | - |
| 1778070774 | 16.11° C | 80% | 1012.2 hPa | 0 mm | - | 177 W/m² | - |
| 1778070470 | 16.11° C | 79% | 1012.2 hPa | 0 mm | - | 297 W/m² | - |
| 1778070167 | 16.11° C | 79% | 1011.9 hPa | 0 mm | - | 349 W/m² | - |
| 1778069865 | 15.56° C | 80% | 1012.2 hPa | 0 mm | - | 345 W/m² | - |
| 1778069562 | 15.56° C | 81% | 1012.3 hPa | 0 mm | - | 181 W/m² | - |
| 1778069259 | 15.56° C | 82% | 1012.6 hPa | 0 mm | - | 245 W/m² | - |
| 1778068957 | 15° C | 84% | 1012.5 hPa | 0 mm | - | 287 W/m² | - |
| 1778068654 | 14.44° C | 85% | 1012.7 hPa | 0 mm | - | 122 W/m² | - |
| 1778068352 | 14.44° C | 85% | 1012.7 hPa | 0 mm | - | 64 W/m² | - |
| 1778068050 | 14.44° C | 85% | 1012.6 hPa | 0 mm | - | 54 W/m² | - |
| 1778067747 | 15° C | 84% | 1012.6 hPa | 0 mm | - | 79 W/m² | - |
| 1778067445 | 14.44° C | 85% | 1012.6 hPa | 0 mm | - | 142 W/m² | - |
| 1778067143 | 14.44° C | 85% | 1012.5 hPa | 0 mm | - | 203 W/m² | - |
| 1778066839 | 14.44° C | 86% | 1012.7 hPa | 0 mm | - | 110 W/m² | - |
| 1778066537 | 14.44° C | 86% | 1012.8 hPa | 0 mm | - | 75 W/m² | - |
| 1778066234 | 13.89° C | 87% | 1012.8 hPa | 0 mm | - | 97 W/m² | - |
| 1778065932 | 13.89° C | 87% | 1012.8 hPa | 0 mm | - | 68 W/m² | - |
| 1778065628 | 13.89° C | 87% | 1012.8 hPa | 0 mm | - | 57 W/m² | - |
| 1778065326 | 13.89° C | 88% | 1012.8 hPa | 0 mm | - | 46 W/m² | - |
| 1778065023 | 13.89° C | 88% | 1012.7 hPa | 0 mm | - | 32 W/m² | - |
| 1778064719 | 13.89° C | 87% | 1012.7 hPa | 0 mm | - | 32 W/m² | - |
| 1778064418 | 13.89° C | 87% | 1012.6 hPa | 0 mm | - | 41 W/m² | - |
| 1778064115 | 13.89° C | 88% | 1012.7 hPa | 0 mm | - | 43 W/m² | - |
| 1778063812 | 13.89° C | 88% | 1012.4 hPa | 0 mm | - | 51 W/m² | - |
* Rain latest hour (hover to see other rain measurements)
** Current wind speed in m/s (hover to see current wind gust speed)